Find Starlink 4277

NORAD ID: 53009 Int'l Des: 2022-076 Owner: SPXS Country: US Constellation: starlink operational
LEOCIRCULAR

当前视图

正在加载3D地球...

关于 Starlink 4277

正在加载描述...

即将过境

Passes for default location (London). Set your location on the main map for personalized predictions.

高度历史

Loading altitude history...

两行轨道根数

1 53009U 22076Z 26150.11408227 -.00000568 00000-0 -17571-4 0 9999
2 53009 53.1976 78.5801 0001588 61.2642 298.8509 15.08830003215278
Epoch: May 30, 2026 • Age: 9 hours

当前状态

高度 540.1 km
速度 7.59 km/s
星下点 16.31°N, 174.46°W
发射日期 Jul 7, 2022
运行时间 3.8 years
类型 internet

技术详情

分类 Payload
质量 297.00 kg
干质量 275.00 kg
总质量 297.00 kg
长度 0.20 m
直径 2.80 m
跨度 9.00 m
形状 Box + pan
制造商 SPXS
平台类型 Starlink
阶段状态 In Orbit
所有者/国家 SPXS/US

Most Searched